Theta_e
334 334 334 335 335 336 336 335 336 336 336 336 336 335 334 333 332 332 332 332 332 331 332 332 332 331 331 331 331 331 330 330 331 331 330 331 332 333 333 333 333 332 331 330 331 331 330 328 328 328 328 327 328 328 327 327 327 328 326 325 325 326 327 328 330 330 331 332 332 332 332 331 331 331 331 330 330 329 328 327 325 325 325 325 324
334 335 334 334 334 336 336 335 335 336 335 336 335 335 334 334 333 333 333 333 333 333 332 332 332 332 332 332 332 331 329 329 330 329 331 332 333 333 333 334 334 333 332 331 331 332 331 330 329 328 328 328 328 328 328 328 327 327 326 326 324 325 326 328 330 331 330 331 333 332 331 331 331 330 330 329 329 328 327 327 325 324 324 324 323
334 335 334 334 334 334 335 335 335 335 335 335 335 335 335 335 334 334 333 334 334 333 333 333 333 333 334 334 334 333 332 331 331 330 330 332 332 331 332 332 333 333 332 331 331 331 331 330 330 329 328 328 328 328 328 328 327 327 327 325 324 324 325 326 328 331 330 330 331 330 329 330 330 330 329 328 329 328 327 326 325 324 323 322 321
333 334 336 335 335 335 335 335 335 335 335 335 335 335 336 336 336 336 335 335 335 335 335 334 334 335 335 335 335 335 335 334 334 333 331 331 331 331 331 331 331 330 330 330 329 330 331 331 330 330 330 330 329 328 328 327 327 327 326 326 325 324 324 324 326 329 330 330 329 328 327 327 328 329 329 328 328 327 327 326 324 323 322 322 321
332 334 336 336 335 336 336 335 335 335 335 335 336 336 336 336 336 336 336 336 336 336 336 336 336 336 336 336 335 335 335 334 334 333 332 332 332 332 332 332 331 330 330 330 329 329 330 330 330 329 330 330 330 329 328 327 327 327 326 326 326 325 324 324 324 325 327 329 329 329 328 327 327 328 328 328 327 327 327 325 324 323 322 321 320
333 333 334 336 335 336 335 336 335 335 335 336 336 336 336 337 337 336 337 336 336 336 336 335 335 335 335 335 334 334 333 332 331 331 331 331 330 331 332 331 331 330 331 331 330 330 330 331 330 330 330 330 330 330 329 328 327 327 326 326 326 325 324 324 324 324 325 327 328 329 329 329 329 329 328 327 325 324 324 323 322 322 321 320 319
333 334 335 336 336 335 336 336 336 336 336 337 337 337 337 337 337 336 335 335 335 334 334 333 334 334 333 333 332 332 331 330 330 330 329 329 329 329 330 330 330 330 330 330 330 330 330 330 330 329 329 329 329 330 331 330 328 327 326 326 326 325 324 324 324 324 324 325 326 328 329 330 329 329 329 328 326 323 321 322 321 319 318 318 317
331 332 335 336 336 337 337 337 337 336 337 337 337 336 336 335 334 333 333 333 332 332 331 331 331 330 330 329 328 328 328 327 327 327 327 326 326 326 326 326 327 327 328 327 327 329 331 330 328 328 328 328 328 329 330 330 329 329 328 327 326 325 325 323 323 324 324 324 325 327 329 330 328 329 330 329 328 325 321 320 319 317 315 315 314
331 332 334 336 336 337 336 335 335 335 335 334 335 334 333 332 331 331 330 330 330 329 329 328 328 328 327 326 326 325 325 324 323 322 323 323 322 323 323 323 323 324 324 325 324 326 328 328 327 327 328 327 328 327 328 329 329 328 327 328 328 326 324 322 322 324 323 323 324 326 328 329 328 329 330 330 329 327 323 320 319 317 314 313 312
332 333 334 334 334 333 332 332 331 332 332 332 332 331 330 329 329 329 328 327 327 327 327 327 326 326 325 325 324 323 323 322 321 321 321 321 321 322 322 321 322 321 322 323 323 323 324 326 327 327 327 327 328 327 326 328 328 326 325 327 328 327 325 323 322 322 322 323 324 325 326 328 329 329 330 330 328 327 326 323 321 319 316 313 311
329 331 331 330 329 328 329 330 330 331 330 330 329 328 327 326 326 327 326 326 326 326 326 326 325 325 325 324 323 323 322 321 321 321 320 320 320 320 320 319 319 319 320 321 322 322 322 324 325 325 326 328 328 328 327 327 327 326 325 326 326 326 325 324 322 321 322 322 323 324 324 326 328 329 329 328 328 327 327 325 323 321 319 314 310
326 327 329 328 328 328 328 329 329 329 329 328 327 326 326 325 325 325 324 324 325 325 326 325 324 324 324 323 323 323 322 321 321 320 320 319 319 319 318 318 318 317 318 319 320 320 322 322 323 323 325 326 327 328 328 327 326 325 325 324 324 324 324 324 323 321 321 322 323 323 323 325 327 328 327 327 327 327 327 326 324 323 320 314 308
325 327 329 329 328 328 328 328 328 327 327 327 326 326 325 325 325 325 324 324 324 324 324 324 324 323 323 322 322 322 321 320 319 318 318 318 317 317 316 316 316 315 315 318 319 319 320 321 322 323 324 325 326 328 328 328 327 325 325 324 323 324 323 323 323 322 321 322 322 322 323 323 325 326 326 327 326 326 325 326 324 323 319 313 309
326 328 329 328 328 328 328 328 327 327 326 326 326 325 325 325 325 324 323 322 322 322 321 321 320 320 320 320 319 319 318 318 317 316 317 317 316 315 315 314 314 313 313 316 318 318 318 320 321 322 323 324 325 326 327 327 325 325 325 323 322 323 323 322 321 321 321 321 321 321 322 322 324 326 326 326 326 326 325 326 324 322 318 312 310
325 327 328 328 328 329 328 327 327 327 326 325 325 325 324 324 324 324 322 321 320 319 318 318 317 316 317 317 317 317 316 316 315 315 316 315 315 314 313 313 313 312 312 314 316 317 318 319 320 322 322 323 324 324 325 326 325 325 326 324 323 322 321 320 320 319 320 320 321 321 321 322 323 326 326 326 326 325 325 325 324 321 317 313 312
324 326 328 329 328 329 328 327 326 326 325 325 325 325 324 324 324 324 322 320 318 317 316 316 315 315 315 315 316 315 314 314 313 313 314 314 313 313 312 311 311 312 313 315 316 316 317 318 319 319 321 322 322 323 324 323 324 324 324 325 323 322 321 320 319 320 320 319 320 320 321 321 323 325 325 325 325 325 325 325 323 321 318 316 315
324 327 329 329 328 328 328 327 326 325 325 324 324 324 324 324 323 322 320 319 318 316 316 315 315 314 314 313 313 313 312 312 312 312 312 312 311 311 311 310 311 313 314 315 315 315 316 317 317 317 319 320 321 322 323 322 323 322 322 323 322 321 320 319 319 318 318 319 319 320 320 321 323 324 324 325 326 326 325 325 324 323 321 320 318
325 328 329 328 327 327 326 325 324 323 322 321 321 321 321 321 320 319 318 317 316 316 315 314 314 313 313 313 312 311 311 311 311 311 311 310 309 309 309 310 312 314 314 315 316 316 315 316 316 316 317 319 320 322 323 322 322 322 322 322 321 321 320 319 319 316 314 317 320 319 319 320 322 325 325 325 326 326 326 326 325 324 323 321 320
324 326 327 327 326 325 323 322 320 319 318 318 317 317 317 317 317 316 316 315 315 314 314 313 313 313 313 313 313 312 311 311 311 311 310 309 308 309 310 311 313 314 314 316 316 316 316 315 315 316 317 318 320 321 323 323 323 322 322 323 322 321 320 319 319 317 314 316 319 319 319 319 321 324 324 324 326 325 325 325 325 325 324 323 321
323 323 325 325 323 322 321 319 318 317 316 315 315 315 314 314 314 314 314 314 314 313 313 312 312 311 311 311 310 309 309 309 309 310 309 308 308 309 310 313 314 314 314 316 316 316 316 315 315 316 316 318 320 321 321 321 322 321 321 322 321 321 320 319 319 319 317 317 318 318 319 319 319 322 323 324 324 325 325 324 324 324 324 323 322
322 322 323 323 321 320 318 317 316 315 314 314 314 314 313 313 313 312 312 311 311 311 311 310 310 309 308 307 307 307 307 307 308 308 308 308 309 310 311 313 314 313 314 315 315 317 316 314 315 314 314 316 319 320 319 319 321 321 320 320 320 320 320 319 318 318 317 316 318 318 318 318 318 320 322 323 322 323 324 324 324 324 323 323 323
322 322 322 321 320 318 317 316 315 315 314 314 313 313 312 312 311 311 310 310 309 309 308 308 308 307 307 306 306 306 306 307 308 309 308 309 310 310 311 312 313 313 314 315 316 317 316 314 314 314 313 316 317 317 317 318 319 319 319 320 319 319 319 319 318 316 313 314 317 317 317 317 318 320 322 322 320 321 322 323 323 323 322 322 322
321 321 320 319 318 316 315 315 314 314 314 313 312 312 311 311 310 309 309 309 308 308 307 306 306 306 305 305 306 307 307 308 309 309 308 309 310 310 311 311 312 313 313 314 315 315 314 313 314 315 315 317 317 316 316 317 318 319 319 319 319 318 318 318 317 315 313 314 316 317 317 317 318 319 320 320 319 320 321 321 322 321 320 321 321
320 320 319 317 317 316 315 314 313 313 313 312 312 311 310 310 309 308 308 308 307 306 306 305 305 305 305 306 307 307 308 308 308 308 308 309 309 309 310 310 311 312 312 313 313 313 313 313 314 315 316 316 317 315 315 315 316 317 318 319 319 318 317 317 317 316 315 316 316 316 317 317 317 317 318 318 319 319 319 320 322 321 320 321 321
319 319 318 317 316 315 314 313 312 312 312 311 311 310 309 309 308 307 307 307 306 305 305 305 305 305 306 307 307 307 308 308 308 308 308 308 308 308 309 309 310 310 311 312 312 312 313 313 313 314 316 317 316 313 312 314 315 315 316 317 318 317 316 315 315 316 315 315 315 315 316 316 316 317 317 317 318 318 318 319 322 322 321 321 321
318 318 318 317 316 314 313 313 312 311 310 310 310 309 308 308 307 307 306 306 306 305 305 305 305 306 307 307 307 307 308 308 308 308 307 307 307 307 308 308 309 309 310 311 311 312 312 312 313 313 314 316 315 311 310 312 313 312 314 316 315 315 315 314 314 315 315 314 314 314 314 315 316 316 316 316 317 317 317 317 320 323 322 321 321
318 317 317 316 315 314 314 313 312 311 310 309 308 307 307 307 306 306 306 306 305 305 305 305 306 306 306 307 307 307 307 307 307 307 307 307 307 307 307 307 308 309 309 309 310 311 312 312 313 313 313 315 313 309 307 309 310 311 313 315 313 313 314 314 314 315 314 315 315 313 313 314 315 316 315 315 316 316 317 316 318 322 322 322 322
317 316 315 315 315 314 314 312 311 310 309 308 308 307 306 306 306 305 305 305 305 305 305 305 305 306 306 306 306 306 307 306 306 306 306 306 306 306 306 307 307 308 308 308 310 310 310 311 312 312 313 314 312 307 305 307 308 310 312 314 312 312 314 313 313 313 313 314 313 312 313 314 315 315 315 315 315 316 317 316 317 321 323 322 322
316 315 314 315 314 313 313 311 310 309 308 308 307 306 306 306 305 305 305 304 304 304 304 304 305 305 305 305 305 305 305 305 305 305 305 306 305 305 306 306 306 307 307 307 309 309 310 310 310 311 313 313 310 305 304 305 306 308 311 313 313 312 313 312 312 312 313 313 312 312 314 315 314 315 314 314 314 313 315 316 317 320 321 322 322
314 314 314 314 313 312 311 311 310 309 308 308 307 306 306 305 305 304 303 303 303 304 304 304 304 304 304 304 304 304 304 304 304 304 304 305 305 305 305 305 305 306 306 307 308 308 310 309 310 311 312 312 308 304 304 305 306 308 310 312 313 312 311 312 312 312 313 312 311 312 314 313 313 313 312 312 312 311 311 313 315 318 319 321 322
314 313 313 313 312 311 310 310 309 309 308 308 307 306 306 305 304 303 303 304 304 304 304 304 304 304 304 304 304 304 304 304 304 304 304 304 305 304 304 305 305 306 306 307 307 308 309 309 309 310 311 311 308 304 304 305 306 308 310 312 313 312 310 311 311 312 312 311 311 312 313 313 312 312 311 310 310 309 309 311 312 314 316 318 320
313 312 313 312 311 310 310 309 308 308 307 307 306 305 305 304 303 303 303 304 304 304 304 303 303 303 303 303 303 303 303 303 303 303 303 304 304 304 304 305 305 305 306 306 306 307 308 309 309 309 310 310 308 305 305 305 306 308 310 311 312 312 311 310 310 311 312 311 312 313 313 313 313 312 311 311 310 306 306 309 311 312 313 315 318
312 311 311 310 310 310 309 308 308 307 306 306 305 305 304 304 303 303 303 304 303 303 303 303 303 303 303 303 303 303 303 303 303 303 303 303 303 304 304 304 305 305 305 306 306 307 308 308 308 308 309 309 308 305 304 304 306 308 310 312 311 311 311 311 310 310 310 311 312 314 313 313 312 311 310 311 310 308 307 309 311 312 313 313 316
312 311 310 310 309 309 309 308 307 306 305 305 304 304 304 303 303 303 303 303 303 303 303 303 303 302 302 302 302 303 303 302 302 302 302 303 303 303 303 303 304 304 305 305 306 306 307 307 306 307 308 308 308 305 302 303 305 307 309 311 311 311 311 310 310 309 309 310 312 313 313 313 312 311 310 308 310 311 311 312 313 315 315 314 316
312 311 310 310 309 309 308 307 306 305 305 304 304 303 303 302 302 303 303 303 302 302 302 302 302 302 302 302 302 302 302 302 302 302 302 302 302 302 302 302 303 303 304 304 305 305 305 305 305 306 307 307 307 304 302 302 303 306 309 310 309 311 312 311 309 308 308 310 312 312 313 312 312 311 308 306 308 311 312 314 315 316 317 317 317
312 311 310 310 309 308 308 307 306 305 304 303 303 303 302 302 302 302 302 302 302 302 302 302 302 302 302 302 302 301 301 301 301 301 301 301 301 301 301 301 301 302 302 303 303 304 304 304 305 306 305 306 305 303 302 301 302 305 308 308 307 309 312 312 310 309 308 309 311 312 312 312 312 310 306 302 304 309 311 313 314 315 316 316 316
311 310 310 309 308 308 307 306 305 304 303 303 303 302 302 302 302 302 302 302 302 301 301 301 301 301 301 301 301 301 301 301 301 301 301 301 300 300 300 300 300 301 301 302 302 303 303 304 305 305 304 304 304 303 301 300 301 303 306 305 305 307 311 312 311 310 309 309 311 311 311 312 312 310 305 301 301 305 309 311 313 314 315 314 313
309 309 309 308 307 307 306 305 305 304 303 303 302 302 302 302 302 301 301 302 301 301 301 301 301 301 301 301 300 300 300 300 300 300 300 300 300 299 299 299 300 300 301 301 302 302 303 304 304 304 304 303 303 303 301 300 301 302 303 303 303 305 308 310 310 310 309 309 310 310 309 310 312 310 305 301 300 304 307 308 310 312 313 314 313
309 308 308 307 307 306 305 305 304 304 303 303 302 301 301 301 301 301 301 302 301 301 300 300 300 300 300 300 300 300 300 300 300 300 299 299 299 299 299 299 299 299 300 300 301 302 302 303 303 304 303 303 303 302 301 300 300 301 301 302 302 303 305 307 309 310 308 307 309 310 309 308 310 309 305 301 302 305 307 307 307 309 311 312 313
308 308 307 307 306 305 304 304 303 303 303 302 302 301 301 301 301 301 301 301 301 301 300 300 300 300 300 300 300 299 300 299 300 299 299 299 298 298 298 298 298 299 299 300 300 301 302 302 303 303 303 302 302 301 300 299 300 300 301 301 301 302 303 304 308 310 309 307 307 310 311 308 307 306 304 301 302 304 306 307 306 307 309 309 310
308 307 307 306 305 304 303 303 303 302 301 301 301 301 301 301 301 301 301 301 300 300 300 300 300 300 300 300 299 299 299 299 299 299 299 298 298 298 298 298 298 298 299 299 299 300 301 302 302 303 302 302 301 300 299 300 300 300 301 300 300 301 302 304 307 310 309 307 306 308 310 308 306 304 303 302 302 302 305 307 306 305 303 303 306
307 306 305 305 304 304 303 303 302 301 300 300 301 301 301 301 301 300 300 300 300 300 300 299 299 299 299 300 300 299 299 299 299 299 299 298 298 298 298 298 298 298 298 299 299 299 300 301 301 301 301 301 301 299 299 299 300 300 300 299 299 301 303 305 308 309 308 306 306 307 307 306 304 303 302 302 302 303 305 305 303 301 297 298 304
307 306 305 305 304 304 303 303 301 300 300 300 301 301 300 300 300 300 299 300 300 300 299 299 299 299 299 299 299 299 299 299 299 299 299 299 298 298 298 297 297 298 298 298 299 298 299 299 299 300 300 300 300 299 297 298 298 298 299 299 300 302 304 305 306 307 306 305 305 306 305 304 304 304 302 302 302 303 305 303 301 300 298 299 304
307 306 305 305 304 304 303 302 301 300 300 300 300 300 300 300 299 299 299 300 300 300 299 299 299 299 299 299 299 299 299 298 299 299 299 299 298 298 298 297 297 297 297 298 298 297 297 297 298 298 298 298 298 298 296 295 296 297 297 298 300 302 304 305 306 306 305 303 304 305 305 304 305 305 303 303 302 303 304 303 301 300 300 302 305
306 306 305 305 304 303 302 301 300 300 300 300 299 300 300 299 299 298 299 299 300 299 299 300 299 299 299 299 299 299 299 298 299 299 299 299 298 298 297 296 296 296 296 296 296 295 295 295 296 296 297 297 296 295 294 293 294 295 296 296 299 301 303 304 305 305 305 303 303 304 304 304 306 305 304 304 303 303 303 302 301 301 303 304 305
306 306 305 304 304 303 302 301 301 300 300 299 299 299 299 299 298 298 298 299 299 299 300 300 299 299 299 298 298 298 298 298 298 298 298 298 298 298 297 296 295 295 295 295 294 294 293 293 293 294 295 295 294 293 292 291 291 293 294 295 298 301 302 302 304 305 305 304 302 302 303 304 305 306 307 306 304 303 303 301 300 302 305 304 303
306 306 305 304 304 303 302 301 301 300 299 299 298 298 298 298 297 297 298 299 299 299 299 300 299 299 299 299 298 298 298 298 298 298 298 298 297 297 296 295 294 294 293 293 293 293 292 291 292 293 293 293 292 291 290 289 289 291 292 293 295 298 300 301 302 305 306 304 302 302 301 302 303 305 307 307 304 303 303 301 301 303 305 304 303
306 305 305 304 304 303 302 301 300 299 299 298 298 298 297 297 297 297 298 299 299 299 299 299 299 299 299 299 298 298 298 298 298 298 298 297 297 296 296 295 294 292 292 292 292 291 291 290 291 292 292 291 291 290 289 288 288 289 291 291 292 295 297 299 301 304 306 305 304 303 302 302 303 304 306 306 306 306 306 304 302 304 304 302 301
306 305 305 304 303 302 301 300 300 299 299 298 298 297 297 297 297 296 297 298 299 299 299 299 299 299 298 299 299 298 298 298 298 298 298 297 296 295 295 295 294 292 290 290 290 290 290 290 290 291 290 290 289 288 287 288 289 290 291 291 291 293 296 298 300 302 304 303 302 301 301 302 303 304 305 305 305 306 306 305 303 303 303 303 303
306 305 304 304 303 302 301 300 299 299 298 298 298 297 297 296 296 296 297 298 298 299 299 299 298 298 297 298 299 299 298 298 298 298 298 297 296 295 295 294 294 292 291 290 290 289 289 289 290 290 290 289 287 287 287 289 290 291 291 291 291 293 296 299 300 299 300 300 300 299 298 298 299 301 302 304 304 304 305 305 303 302 303 304 305
305 305 304 303 303 302 301 300 299 299 298 298 297 297 296 296 296 296 296 297 298 298 298 298 298 297 296 297 298 298 298 298 298 298 298 298 297 296 296 295 294 293 292 291 291 290 289 289 289 289 289 289 289 289 289 290 291 291 291 291 291 292 295 298 298 297 297 296 297 297 296 295 295 296 297 299 303 304 304 305 304 303 303 303 304
Wind_Speed
8 7 6 5 4 3 3 3 3 4 5 5 6 6 7 8 8 9 9 9 10 11 11 11 11 11 11 12 12 11 10 10 10 9 10 10 10 10 10 10 9 9 9 8 8 8 8 8 7 7 7 7 7 7 6 6 6 6 6 6 7 7 6 5 4 4 4 3 3 3 3 2 3 4 4 7 9 8 9 10 9 9 8 8 9
8 8 7 6 6 5 4 4 4 5 6 6 6 7 8 9 10 10 10 10 11 12 12 11 11 11 11 11 12 12 12 12 12 12 12 11 12 12 11 11 11 11 10 10 9 9 9 9 8 8 8 7 8 8 8 7 7 6 7 6 6 7 7 6 5 6 7 5 4 4 4 3 3 5 6 9 9 8 9 10 9 9 8 8 8
7 8 8 7 7 6 5 5 5 6 6 7 8 8 9 10 11 11 11 11 11 12 12 11 11 11 10 11 11 12 12 12 13 13 13 13 14 14 13 12 12 12 12 12 11 11 10 10 10 9 9 9 9 8 8 8 7 7 7 6 6 7 7 7 6 8 8 7 6 5 4 4 4 5 7 8 8 7 9 9 9 9 8 8 8
7 8 8 8 8 7 7 7 6 7 8 9 9 9 9 10 11 11 11 11 11 12 12 11 11 10 10 11 11 11 11 12 12 13 14 16 16 16 16 15 15 14 15 15 15 14 13 13 12 11 11 10 10 10 9 9 8 8 7 6 6 7 7 5 6 8 9 8 6 5 4 4 4 5 7 6 6 7 8 9 8 10 9 7 8
7 7 7 7 8 8 8 8 8 8 9 9 10 10 9 10 11 11 10 11 11 12 13 12 11 11 12 12 12 12 12 13 15 16 17 18 19 19 20 19 18 17 17 17 18 18 16 15 15 14 13 12 11 11 10 9 9 9 8 8 7 7 7 6 7 8 10 10 8 7 4 4 3 6 8 4 6 8 7 8 8 9 8 7 7
7 7 7 8 8 8 9 9 9 9 9 9 9 10 10 11 11 11 11 12 12 13 13 13 12 13 14 14 14 15 15 15 17 18 19 20 21 21 21 21 21 20 19 19 21 21 20 18 17 17 16 15 13 12 12 11 10 10 9 9 8 8 7 7 8 7 9 10 11 11 6 5 4 4 6 2 7 8 6 8 8 7 7 6 6
7 8 8 8 8 9 10 10 10 9 9 9 10 11 11 12 12 12 12 12 13 13 14 14 13 14 15 15 15 15 16 16 17 18 19 20 22 22 21 20 21 22 21 21 21 21 22 21 19 20 21 19 17 14 13 13 12 11 10 10 9 8 8 8 8 7 8 10 11 11 9 9 8 5 5 3 5 5 4 6 7 6 6 6 6
8 8 9 10 10 10 11 11 11 10 10 10 11 11 12 13 14 14 14 15 15 15 16 16 15 16 17 17 16 16 16 17 17 18 19 19 21 22 21 20 21 22 22 23 24 20 20 22 21 21 21 22 23 20 16 14 13 13 11 11 11 10 9 9 9 8 8 9 9 10 10 10 10 9 8 6 5 5 4 5 6 7 5 5 5
9 9 10 11 11 11 12 12 11 11 11 12 12 13 14 15 16 16 17 17 18 18 18 18 18 17 17 17 17 16 16 16 16 17 18 19 20 21 21 21 22 23 22 24 26 23 20 23 24 22 20 21 24 25 22 16 15 16 15 12 12 11 11 10 10 9 8 9 9 10 10 10 9 9 9 9 6 4 5 6 7 7 6 5 4
10 11 12 12 13 13 13 14 14 13 13 14 14 14 15 16 18 18 18 18 18 19 19 18 18 17 17 17 17 16 16 16 17 18 18 19 20 21 21 21 22 23 23 23 23 24 23 22 21 22 22 20 21 23 24 19 18 21 20 16 13 12 12 11 10 10 9 9 10 10 10 9 8 7 8 8 6 4 5 7 10 10 8 7 5
10 12 14 14 14 15 15 16 15 15 14 15 15 15 16 17 18 19 18 18 18 19 19 18 18 17 17 17 17 17 17 16 17 18 19 19 20 21 21 21 22 22 23 23 22 23 24 22 22 22 21 20 20 20 21 21 20 20 18 16 14 14 14 12 11 11 10 10 11 11 11 9 7 7 7 8 7 6 5 6 10 12 10 9 7
10 11 13 14 14 15 15 16 15 15 15 15 15 15 16 16 17 18 18 17 18 18 19 18 18 17 17 16 16 16 16 16 17 17 18 19 20 20 21 21 22 23 22 22 23 24 24 23 24 24 21 20 20 19 19 20 19 18 17 16 16 17 16 13 12 11 10 10 11 11 11 9 8 8 7 8 9 7 4 4 8 11 9 8 8
10 9 10 11 12 13 14 15 14 15 15 15 15 15 15 15 16 17 17 17 17 17 18 18 17 17 16 16 15 15 15 16 16 17 18 19 19 20 21 22 23 24 23 22 23 24 23 23 25 24 23 22 20 19 17 18 18 17 17 17 17 18 17 14 12 11 11 11 11 11 11 10 8 9 7 8 8 7 5 4 7 9 7 8 9
9 8 9 11 11 12 13 13 13 14 14 14 14 14 14 15 16 16 17 17 17 17 18 18 18 18 17 17 16 16 16 16 17 18 18 18 19 20 21 22 23 24 24 22 22 23 23 23 24 24 24 23 22 20 18 19 20 18 19 20 19 19 18 15 12 11 11 11 11 10 11 10 8 8 8 8 8 8 7 6 7 8 7 9 9
8 8 10 11 11 11 12 12 12 13 13 13 13 13 14 15 15 16 16 17 18 18 17 18 18 18 18 18 17 17 17 17 17 17 17 18 18 19 21 22 22 23 22 21 22 23 23 23 23 23 24 23 22 21 19 19 20 19 20 20 19 19 16 14 13 12 11 11 11 11 11 10 8 7 8 8 9 8 8 8 9 7 7 8 7
7 7 9 10 10 10 11 11 11 12 12 12 13 13 13 14 15 16 16 16 17 17 17 17 17 18 18 18 17 17 17 17 17 18 17 17 18 19 20 21 21 21 20 20 21 22 22 23 24 23 24 24 23 22 20 19 18 18 19 18 17 16 14 14 14 11 10 10 10 10 10 10 8 7 7 7 8 8 8 8 10 9 7 6 6
7 7 8 9 9 10 11 11 11 11 12 12 13 13 14 15 15 15 16 16 16 16 16 16 16 17 17 18 17 17 17 17 17 19 18 18 19 19 20 21 20 20 19 20 21 21 22 23 24 24 24 24 23 22 21 21 19 18 19 19 16 13 12 14 13 10 11 12 12 11 10 10 8 7 7 6 7 8 8 9 11 11 8 6 5
7 8 8 9 9 10 10 11 11 12 12 13 13 14 15 15 15 15 16 16 15 15 16 16 16 16 16 17 17 17 17 17 18 19 19 19 20 20 20 20 20 19 19 20 20 20 22 23 24 24 24 23 24 23 21 20 18 16 17 17 14 13 14 13 11 11 13 13 14 13 11 10 8 7 6 6 6 7 8 9 10 10 8 6 5
7 7 8 9 9 10 10 10 11 12 12 13 14 14 15 15 15 15 15 15 15 16 16 16 16 16 15 16 16 17 17 18 18 19 19 20 21 20 20 20 20 20 20 21 21 21 22 24 24 24 24 24 23 22 20 19 18 16 15 14 13 14 14 13 12 13 14 14 14 12 11 11 9 7 7 6 6 6 7 8 8 8 7 7 6
7 7 8 10 10 10 10 10 11 11 12 13 13 14 14 14 15 15 14 15 15 16 16 16 17 17 18 18 19 19 19 20 20 20 20 21 21 21 21 20 20 21 21 21 21 21 23 24 25 25 25 24 23 23 22 21 18 16 14 13 13 13 13 14 14 13 14 15 13 11 12 11 9 8 8 7 6 6 6 6 7 7 6 7 7
8 8 9 10 9 9 10 9 10 11 12 12 12 13 13 14 15 15 16 16 16 16 17 17 18 19 21 22 22 22 22 22 21 21 21 21 21 21 21 21 21 21 22 22 21 21 23 24 25 25 26 25 24 25 26 24 21 18 16 14 13 13 13 14 14 10 11 14 13 12 13 11 9 9 8 8 6 6 6 6 7 7 7 8 8
8 8 9 9 9 9 10 10 10 11 12 12 12 13 14 14 15 16 17 17 17 17 18 19 20 21 22 22 22 21 21 22 21 20 21 21 21 21 21 21 21 21 22 22 22 22 23 24 24 25 26 25 24 27 29 27 24 22 19 16 14 14 14 14 11 6 6 12 13 12 12 9 8 9 9 8 7 6 7 7 7 7 8 9 9
9 9 10 9 8 8 9 10 10 11 12 12 12 13 14 15 15 16 17 18 18 19 20 20 20 20 20 19 19 18 19 20 19 19 20 20 20 20 20 21 21 21 22 22 22 22 23 24 24 24 25 24 25 28 30 28 26 24 21 18 14 13 13 13 9 6 6 12 14 11 10 8 7 9 9 8 7 6 6 6 6 7 8 9 9
9 10 9 8 8 8 9 9 10 11 12 12 13 13 14 15 15 16 17 19 20 20 20 20 19 18 17 17 17 17 18 19 18 18 20 20 20 20 20 20 21 21 22 22 22 22 23 23 23 24 24 23 24 26 28 29 27 24 22 20 16 14 12 12 11 9 8 10 12 11 9 8 7 8 8 7 6 6 6 5 5 6 8 8 8
9 9 9 9 8 8 9 10 10 11 12 12 13 13 14 15 16 17 18 19 19 19 18 18 17 16 16 16 17 17 17 18 18 19 20 20 20 20 20 21 21 22 22 22 23 23 22 23 23 23 23 22 23 25 29 32 31 26 24 22 18 14 11 12 12 11 9 10 10 10 10 9 8 8 7 7 5 5 6 5 5 6 7 8 8
9 9 9 9 9 10 10 10 11 12 12 12 13 14 14 15 16 17 17 18 18 17 16 16 15 15 15 16 17 17 17 18 19 19 20 20 20 20 21 21 21 22 22 22 23 23 23 23 22 22 23 22 22 26 31 35 35 28 25 23 19 14 9 10 11 10 9 10 9 9 10 10 10 9 7 6 5 5 5 6 6 5 6 7 7
8 8 8 9 9 10 11 11 11 12 12 13 13 14 14 15 16 16 16 16 16 16 15 14 14 15 15 16 17 17 17 18 18 18 19 19 20 21 21 21 21 22 22 22 23 23 23 22 22 22 22 21 22 27 33 37 36 29 25 25 21 14 6 5 8 8 7 7 7 8 10 10 10 9 8 6 5 5 6 7 6 5 6 7 7
8 8 8 9 8 9 11 11 12 12 13 13 13 13 14 14 14 15 15 15 15 15 14 14 14 15 16 16 17 16 16 18 18 18 19 19 20 21 21 21 21 21 22 22 22 22 22 23 22 22 22 20 22 30 35 38 37 29 23 24 23 15 7 0 4 4 3 6 7 7 9 9 9 9 7 5 4 4 4 6 7 7 6 7 7
9 9 8 8 9 10 11 11 11 12 12 12 12 12 13 13 13 14 15 15 15 14 14 14 15 15 16 17 17 16 17 18 18 19 19 20 20 21 21 22 22 21 22 22 22 22 22 23 22 22 21 19 22 32 38 37 36 30 21 20 20 14 7 2 1 4 5 6 7 7 8 6 6 6 6 4 3 3 4 4 5 7 7 8 8
10 9 9 9 9 10 10 10 10 11 11 10 11 11 12 13 14 14 15 15 14 14 14 15 15 16 17 17 17 17 17 18 19 19 19 20 20 21 21 22 22 22 22 22 22 22 21 22 22 22 21 18 21 33 42 38 33 29 22 16 14 11 6 3 2 4 5 5 5 6 6 5 5 5 4 3 3 5 6 6 4 5 5 7 9
10 9 9 9 9 9 9 9 9 9 9 9 10 11 12 13 14 14 14 14 14 14 14 15 15 16 17 17 17 17 18 18 19 19 19 20 20 20 21 22 22 22 23 22 22 22 21 21 21 22 21 19 21 34 45 41 34 29 22 15 11 9 7 4 5 5 3 3 4 5 5 4 4 3 3 2 3 4 7 7 5 4 4 5 7
10 9 8 8 8 9 8 7 7 8 8 9 10 11 12 13 13 14 13 13 14 14 14 15 15 16 17 18 18 18 19 19 19 20 20 20 20 20 21 22 22 23 23 22 22 22 21 22 21 22 22 19 21 34 45 43 36 30 22 15 11 10 9 6 5 6 5 3 3 3 3 3 4 4 3 2 3 4 6 7 5 5 5 6 7
9 8 8 8 8 8 7 7 7 7 8 10 11 11 12 12 12 13 13 13 13 14 15 15 16 17 18 18 18 18 19 19 20 20 20 20 21 21 22 22 22 23 23 22 23 22 22 22 22 22 22 19 22 35 45 45 39 32 22 15 13 12 10 8 7 6 4 3 1 2 3 3 4 4 2 1 1 2 3 4 4 4 5 7 9
9 9 9 8 8 8 7 7 7 7 8 9 10 11 11 11 12 12 12 13 13 14 15 16 16 17 18 18 18 18 19 19 20 20 21 21 21 22 22 22 22 23 23 23 23 23 22 22 22 22 21 20 23 34 45 46 42 34 23 15 13 13 11 10 9 7 5 4 2 1 3 3 3 3 1 0 1 2 3 3 3 3 5 6 8
9 9 9 8 8 8 7 6 7 8 8 9 11 11 11 11 11 11 12 13 13 14 15 16 16 17 17 18 18 18 19 19 20 20 21 21 22 22 22 23 22 22 23 23 23 22 21 21 21 21 21 21 23 32 43 47 44 36 25 17 16 15 11 12 13 9 5 4 4 2 2 2 2 3 1 1 2 2 3 5 4 4 4 4 5
11 10 10 9 9 8 7 7 7 8 9 10 11 10 10 11 11 11 12 13 13 15 16 16 16 17 17 17 18 18 19 19 20 20 21 21 22 23 23 24 23 23 22 22 22 21 21 21 22 22 21 21 23 30 41 47 44 37 29 21 18 16 12 12 15 12 7 5 5 4 2 2 2 2 1 2 3 3 3 5 5 5 5 5 5
13 12 11 11 10 9 8 8 9 9 10 10 10 9 10 11 11 11 12 13 14 15 16 16 16 16 16 16 17 17 18 19 19 20 21 22 22 23 23 24 24 23 23 23 22 22 22 21 21 22 22 22 22 28 39 46 44 39 33 24 18 16 14 13 14 14 10 6 6 5 1 2 2 2 1 1 3 3 2 4 5 6 6 6 5
14 13 13 11 10 9 9 9 9 10 9 9 10 10 10 10 11 12 12 13 14 15 16 16 16 15 16 15 16 17 17 18 19 20 21 22 22 22 23 23 23 23 23 23 22 21 21 20 20 21 22 22 23 27 37 44 43 39 36 29 21 17 16 15 14 14 13 9 6 4 1 1 2 3 3 2 4 2 1 3 4 5 6 7 7
14 13 13 12 10 10 9 10 9 9 9 9 9 10 10 11 11 11 12 12 13 14 15 15 15 14 14 14 15 16 16 17 18 19 20 21 21 21 22 22 23 22 23 23 23 22 21 20 21 21 22 23 24 26 34 42 42 39 38 35 27 21 19 17 14 14 16 13 7 5 4 1 3 4 3 3 4 2 1 1 3 4 5 6 6
14 13 13 12 10 9 10 10 9 9 8 8 8 9 10 11 11 10 11 12 12 13 14 14 13 13 13 14 15 16 16 16 18 19 19 19 20 21 21 22 22 22 23 23 23 23 22 21 21 22 22 23 24 26 33 40 41 39 38 37 32 25 21 17 13 13 16 16 11 7 6 4 2 6 5 4 4 4 3 2 2 3 3 4 5
15 14 12 11 10 10 10 10 8 8 8 8 8 9 10 11 10 10 11 10 10 11 12 13 12 12 12 13 14 15 15 15 17 18 18 19 19 20 21 22 22 22 23 24 24 24 22 21 22 22 22 23 24 26 32 39 41 38 37 37 34 30 24 17 13 13 15 16 14 9 7 7 2 6 7 5 5 5 4 4 4 4 3 3 4
15 13 12 10 11 11 10 9 8 7 8 8 8 10 10 10 10 10 9 9 9 10 11 12 12 12 12 13 14 15 14 15 17 17 18 19 19 19 20 21 21 22 22 23 24 24 22 22 22 21 21 23 25 26 31 37 39 37 36 35 33 30 23 15 14 15 14 14 14 10 8 8 2 6 8 6 6 6 5 4 5 5 4 5 6
14 13 11 10 11 11 9 8 7 7 8 8 9 10 10 9 9 9 8 8 9 9 10 11 11 12 13 13 14 14 15 15 16 17 18 18 18 19 20 19 20 21 21 22 22 23 23 23 23 23 23 24 26 27 30 36 38 36 35 35 33 29 23 16 15 17 16 15 14 11 8 6 2 7 9 7 7 5 4 3 5 6 7 8 6
14 13 11 11 11 11 9 7 7 7 8 8 9 10 10 9 9 8 8 8 8 9 9 10 10 11 13 13 14 14 15 15 16 17 18 18 18 18 18 19 20 21 21 21 21 21 22 23 23 23 24 25 26 26 29 34 37 36 35 35 33 29 23 18 16 16 18 20 18 13 9 6 3 8 10 8 6 5 4 3 4 7 8 8 5
15 13 12 11 11 11 9 8 7 7 8 9 10 10 9 9 8 8 9 9 8 9 9 9 10 11 12 13 13 13 14 15 15 16 17 18 18 18 18 19 20 20 20 20 20 20 20 20 21 22 23 24 26 26 29 34 37 36 34 34 33 29 25 20 16 15 19 22 19 13 9 5 6 9 9 7 6 5 4 4 4 5 6 4 3
15 14 12 12 11 10 9 9 8 7 8 9 9 9 8 8 8 9 9 9 8 9 9 9 10 10 12 13 13 12 13 15 15 15 17 18 18 18 18 18 19 20 20 19 19 19 19 19 20 21 22 23 24 25 29 34 36 36 36 35 33 29 26 22 17 14 17 21 19 13 9 8 10 10 7 5 5 5 4 4 4 3 3 3 3
15 14 13 12 11 10 9 9 8 7 8 9 9 8 8 7 8 9 9 8 8 9 9 10 10 10 10 12 13 12 12 14 14 15 15 17 17 17 16 17 18 19 19 19 19 19 19 19 20 20 21 22 23 25 29 33 34 34 34 34 32 29 25 22 20 16 15 18 19 17 15 14 12 8 5 4 4 4 3 3 3 2 3 4 4
15 14 13 11 10 10 9 9 8 8 8 8 8 8 8 8 9 9 9 8 8 8 9 10 10 10 10 10 11 12 12 13 13 14 14 15 17 16 15 15 16 17 17 19 20 19 18 18 19 19 20 22 22 24 28 31 32 31 31 31 31 30 26 22 20 17 14 14 17 19 20 19 17 11 6 4 3 2 2 2 2 2 4 5 4
16 14 12 11 10 10 10 9 9 9 8 8 7 7 7 8 9 9 9 9 8 8 8 9 10 11 11 10 10 11 12 12 13 13 12 12 14 16 15 14 13 14 16 18 20 19 18 17 17 17 19 20 22 24 27 28 27 25 25 27 29 28 24 20 18 17 15 15 18 21 23 23 20 17 12 7 5 3 3 3 3 2 2 3 3
16 13 12 12 11 10 10 10 9 9 8 7 7 6 7 7 8 9 9 9 8 7 8 9 10 11 12 11 10 10 10 11 12 13 12 10 10 13 15 15 14 15 16 18 21 22 21 19 18 17 16 18 20 23 26 26 25 22 21 25 29 27 21 18 18 18 17 18 19 20 22 23 23 20 17 14 11 8 5 4 3 2 1 2 2
16 14 14 13 12 11 10 10 9 9 8 7 7 6 6 7 8 9 9 9 9 8 8 9 9 10 12 12 11 10 11 10 11 11 12 10 9 10 14 17 17 17 17 17 21 25 25 24 23 22 19 19 22 26 28 27 25 22 21 23 28 30 25 21 20 21 21 20 19 18 19 22 24 23 21 18 15 12 9 6 4 2 1 1 1
Wind_Direction
98 102 102 100 103 100 85 69 58 52 45 37 32 29 24 21 18 12 8 6 5 4 2 1 1 359 357 357 356 352 350 348 342 337 333 328 325 321 314 308 304 301 300 300 301 301 301 303 303 301 300 298 292 289 292 299 303 309 314 307 292 285 278 266 254 244 230 196 170 179 193 187 141 137 141 135 136 134 128 128 125 120 113 103 98
89 91 94 96 100 104 92 71 56 50 43 35 29 26 21 20 18 13 10 9 9 7 2 360 359 355 351 349 347 344 344 341 336 335 332 326 323 320 316 311 306 300 295 292 291 291 294 298 299 296 296 295 289 284 279 279 282 293 305 306 295 285 276 267 250 245 247 239 223 205 189 173 150 143 146 143 139 138 138 134 129 124 116 109 104
75 73 76 79 83 89 83 72 58 48 43 35 29 24 22 20 17 14 13 12 10 7 2 356 351 346 341 337 335 333 334 332 330 331 328 324 323 321 319 316 312 305 297 293 289 284 283 286 288 288 288 289 287 284 276 271 270 274 283 293 297 286 269 256 245 249 259 260 248 233 207 181 179 162 150 145 141 141 142 138 131 123 116 113 106
68 67 67 69 72 72 66 61 56 49 43 37 30 25 22 18 15 13 14 13 8 3 358 350 344 342 338 332 330 326 328 330 329 333 331 328 328 326 327 322 318 316 308 299 291 283 279 279 281 282 282 283 282 282 279 272 267 263 265 273 283 284 277 262 252 252 259 262 256 253 233 223 226 166 147 148 144 146 146 144 136 124 120 117 110
58 63 63 63 64 61 58 54 52 50 42 35 29 23 19 16 15 13 13 11 8 3 358 354 351 352 349 345 346 343 345 346 341 341 342 340 338 336 335 330 325 322 315 309 302 293 284 278 278 278 275 276 276 277 279 276 269 264 257 258 263 274 283 279 268 255 255 260 259 265 253 249 258 149 149 148 120 130 139 138 135 129 128 123 117
57 59 60 61 60 57 56 50 47 44 38 32 28 25 22 20 18 17 18 16 13 11 8 8 8 7 5 3 3 359 358 359 353 349 349 348 348 346 344 341 340 337 329 323 316 310 304 295 287 286 280 274 272 273 278 276 271 266 256 252 253 258 267 275 274 262 258 259 254 261 260 253 269 151 163 159 101 106 117 129 132 127 128 129 123
67 62 60 59 57 57 55 50 47 44 38 35 32 31 29 28 28 28 30 27 23 22 20 22 23 22 20 18 16 11 7 6 3 0 358 356 357 356 353 351 351 350 345 336 329 322 319 314 304 299 294 285 278 272 271 273 272 268 258 252 252 253 257 266 274 271 263 257 248 253 255 246 250 237 219 194 131 117 111 127 130 122 122 126 124
69 65 62 60 57 56 56 52 51 46 41 40 38 40 41 42 42 43 43 40 35 35 35 36 36 33 32 30 28 25 20 15 13 13 11 9 8 6 5 3 0 359 354 349 348 340 329 326 322 314 306 296 292 284 273 268 269 268 260 250 249 248 251 261 271 272 266 262 252 247 251 249 242 239 242 229 186 158 139 138 133 124 114 107 112
70 70 67 66 62 60 60 58 57 52 51 52 52 55 55 53 53 53 51 48 45 45 44 44 43 41 39 36 34 30 27 23 19 18 16 14 13 10 8 6 4 2 359 357 358 355 343 334 332 330 321 307 298 291 283 274 265 267 266 255 248 246 247 254 260 264 265 265 262 251 247 250 244 233 236 241 231 183 160 164 150 138 126 111 110
76 76 74 72 70 69 69 68 66 62 60 61 60 61 60 59 57 56 54 50 48 47 47 46 44 43 41 37 35 30 27 24 20 19 15 12 12 10 7 5 2 0 358 357 357 355 351 343 336 332 326 314 301 291 285 279 268 268 267 258 252 250 248 250 251 256 263 263 263 259 250 245 242 231 224 228 236 229 194 169 162 164 152 135 130
80 80 79 77 75 74 73 71 68 65 62 62 61 61 61 60 59 57 54 50 48 46 46 45 43 41 39 36 33 28 24 21 18 16 12 11 10 7 5 3 2 359 355 354 353 351 349 345 340 335 327 317 307 296 287 279 273 272 270 263 260 259 253 249 249 251 256 260 259 259 257 248 238 235 226 215 218 222 206 165 166 174 158 140 144
79 79 77 75 73 70 69 67 65 63 61 60 60 60 60 58 57 56 51 48 47 45 45 44 41 39 35 32 30 27 23 19 16 14 10 8 6 4 2 0 359 357 353 351 351 350 347 344 341 337 331 323 316 307 295 286 280 276 273 270 267 265 260 251 249 249 248 253 255 254 257 252 238 239 235 220 223 223 205 162 162 170 155 134 144
78 76 73 71 68 65 64 62 61 59 58 58 57 55 55 52 51 52 49 45 45 44 43 43 40 36 32 30 27 24 21 18 15 12 9 6 3 1 0 358 356 354 350 348 348 348 347 343 340 337 333 328 322 316 305 295 288 271 258 259 262 264 264 256 249 250 251 252 253 252 253 249 235 233 230 221 227 227 217 182 153 162 157 136 151
76 76 73 69 66 64 63 60 59 57 53 53 51 48 48 45 46 50 48 45 44 44 43 41 39 35 32 29 25 22 20 18 16 12 8 5 2 360 358 355 353 350 347 344 343 344 345 343 339 336 334 330 326 323 316 305 298 274 252 254 255 254 260 262 255 252 255 255 254 255 255 252 238 224 223 220 220 221 217 189 155 159 150 142 164
78 77 74 71 69 67 65 62 59 56 52 49 46 44 44 41 45 49 48 46 44 43 42 41 39 36 33 30 26 23 21 18 15 11 6 3 1 358 356 353 348 346 345 343 342 342 343 343 340 337 335 333 329 326 323 315 306 286 265 258 249 241 245 257 259 255 256 255 250 250 254 255 242 218 218 220 217 219 217 189 171 171 151 149 175
79 79 79 77 73 69 66 61 58 56 53 50 45 42 41 40 46 49 47 46 45 43 42 40 39 36 33 30 26 23 21 17 13 7 4 0 357 354 352 350 347 344 344 343 342 342 343 342 342 339 337 335 331 328 326 322 312 298 282 267 251 241 239 247 258 267 272 270 260 250 249 255 247 222 214 214 210 210 212 196 185 187 173 165 182
77 80 81 79 72 65 64 61 58 56 54 53 49 47 45 46 50 51 48 46 43 42 41 37 35 33 30 26 23 19 15 13 7 2 359 356 354 352 350 349 349 347 345 343 342 343 345 344 342 341 339 337 335 332 331 329 321 308 296 281 262 247 241 244 255 274 281 275 267 255 247 253 251 229 213 205 200 197 199 198 195 200 199 188 186
82 84 83 79 72 67 67 66 64 62 59 58 56 55 55 54 53 52 48 44 40 37 35 31 27 24 21 18 15 12 8 5 1 358 356 354 354 353 352 352 350 349 347 344 343 345 347 345 343 343 341 340 339 336 335 335 331 318 305 291 270 249 242 244 250 260 266 266 263 256 248 250 246 230 215 197 191 191 190 195 200 207 214 213 205
87 85 83 81 78 74 73 70 69 66 63 61 58 58 57 54 51 48 45 42 37 33 28 24 20 16 12 9 7 6 3 0 358 357 356 356 356 355 354 351 350 350 349 345 345 347 347 347 346 346 344 342 342 341 339 338 336 327 314 296 274 257 248 244 241 241 250 261 263 255 248 248 241 230 224 205 190 191 193 196 201 205 210 215 210
92 89 88 86 83 80 76 71 68 66 62 60 57 55 53 49 45 41 36 34 32 29 23 18 16 12 8 5 4 3 2 0 360 360 360 360 359 357 354 351 349 350 350 347 347 348 349 348 348 350 348 345 344 344 343 341 338 331 321 304 283 268 255 248 244 239 249 263 263 251 245 243 236 232 228 214 199 195 199 201 201 202 201 203 198
96 95 95 93 89 86 80 72 67 64 59 56 52 49 46 43 40 35 30 26 24 23 20 16 12 9 7 6 5 4 4 3 3 3 3 1 359 357 354 351 349 349 348 348 347 348 349 349 350 353 352 350 349 347 346 344 340 333 324 313 294 274 260 255 252 246 258 271 268 252 245 239 231 232 228 216 206 199 201 201 198 197 193 195 193
103 101 98 94 91 85 79 71 64 59 54 51 48 45 41 37 35 33 28 24 21 19 16 13 10 8 8 7 6 6 4 3 2 2 1 359 356 354 351 349 348 347 347 349 348 349 349 349 351 354 354 353 355 354 351 347 343 338 327 316 306 288 268 256 251 234 248 277 277 255 244 240 230 231 232 221 211 207 206 202 197 196 191 192 192
107 103 98 95 90 82 74 68 62 57 53 47 44 43 39 33 30 29 27 23 19 16 12 10 9 9 9 7 6 5 3 2 2 1 358 356 354 352 351 349 348 347 347 349 350 350 350 351 351 353 354 356 358 357 356 351 346 341 329 317 311 301 277 251 233 197 213 266 279 262 243 243 240 239 236 224 215 213 210 205 199 196 192 187 187
108 103 98 94 87 76 65 57 53 52 50 45 41 38 36 32 27 25 25 21 16 13 10 10 9 8 8 7 5 4 2 3 1 359 357 355 354 353 352 352 350 350 349 349 350 350 350 351 351 352 355 359 0 359 357 355 350 341 330 321 312 302 281 246 222 200 211 256 279 276 258 246 247 245 230 215 213 214 207 203 196 190 189 182 180
112 103 96 88 76 67 59 51 46 44 43 39 35 32 31 30 27 24 22 18 13 11 9 8 6 6 6 6 5 3 3 2 360 358 356 354 354 353 352 353 352 352 352 350 351 351 350 350 351 352 354 359 4 2 358 357 355 346 335 329 320 308 279 238 216 203 220 254 276 288 279 254 241 238 224 212 213 217 211 204 198 188 181 174 176
112 102 94 85 73 65 59 51 45 41 37 33 29 26 27 27 25 23 19 15 11 8 6 5 3 4 4 3 3 2 0 359 357 356 355 353 353 352 351 352 351 351 353 353 352 352 350 349 350 352 356 0 5 4 1 0 360 353 345 342 338 324 287 235 210 200 224 256 276 289 288 266 239 228 225 224 224 231 225 211 208 197 172 164 174
113 105 97 90 80 71 63 54 47 40 34 31 27 25 25 24 23 20 16 12 8 3 3 3 2 2 2 1 0 358 357 356 354 352 351 351 351 352 350 349 349 350 352 352 352 352 351 351 350 352 358 4 6 5 3 2 3 358 351 355 359 351 320 225 201 201 222 255 274 280 284 271 244 229 226 225 229 240 234 217 210 199 171 166 176
116 107 100 94 84 72 63 54 46 38 33 30 28 27 25 22 20 17 12 9 5 2 2 2 2 3 2 0 358 356 354 354 352 350 350 350 350 350 349 348 348 350 351 351 351 351 352 353 353 354 360 8 10 7 4 2 3 2 355 0 11 11 358 334 190 209 243 263 265 270 279 269 243 234 231 217 214 231 236 218 204 197 179 171 178
117 106 97 88 77 68 60 51 44 37 32 30 28 27 25 21 19 14 10 8 5 3 3 3 4 4 1 359 357 355 354 353 352 352 351 351 350 349 348 347 348 348 349 350 351 351 353 354 356 357 1 10 13 7 4 3 4 6 1 1 13 20 14 17 269 269 275 275 274 278 280 260 221 221 226 213 218 244 254 239 205 197 188 178 184
113 102 92 82 73 67 60 53 46 38 34 32 29 26 23 20 16 12 10 9 7 6 5 4 5 3 360 358 356 355 354 353 354 353 351 351 350 349 348 347 348 348 348 350 351 352 354 354 356 358 0 10 14 5 2 4 5 7 6 360 9 23 29 38 2 292 271 273 287 282 271 247 205 198 204 210 237 251 257 261 236 211 205 191 191
107 100 94 86 77 68 62 56 50 43 39 36 30 26 23 19 15 13 11 9 8 8 6 5 5 2 360 359 357 355 354 354 354 353 352 352 350 350 349 347 347 347 348 350 352 353 354 354 356 358 359 7 10 1 1 5 5 5 7 3 1 7 1 9 31 18 345 311 301 277 247 221 192 178 177 211 246 249 248 253 245 228 228 211 204
110 105 98 90 81 73 67 61 54 49 43 37 29 25 23 18 15 13 11 9 9 7 5 6 4 1 1 0 357 355 355 355 354 353 352 352 351 351 350 348 347 347 347 349 351 354 356 356 358 357 356 3 6 0 1 5 4 2 7 10 5 2 356 351 8 17 9 346 312 271 224 190 173 171 173 218 263 259 243 240 239 233 228 214 211
112 108 100 92 86 81 76 70 61 51 44 36 28 25 23 18 15 14 13 11 9 8 7 5 4 4 3 0 357 356 355 355 354 353 352 352 353 353 351 348 347 346 347 348 350 354 356 358 0 357 355 3 6 1 2 6 4 2 7 14 7 1 1 357 348 353 10 19 332 246 202 179 174 181 192 220 245 245 225 219 224 227 229 220 210
113 108 104 98 95 93 86 79 67 54 44 34 31 28 22 18 17 17 16 11 9 9 9 6 5 5 3 0 358 357 356 355 355 354 354 354 354 353 351 350 347 346 348 348 349 352 355 357 1 358 356 2 3 359 1 5 5 4 8 14 7 360 3 5 357 354 7 13 344 239 190 179 174 170 179 251 185 165 162 168 172 185 211 221 205
116 112 111 108 106 102 93 82 66 52 41 33 31 27 19 20 22 20 17 13 11 11 10 7 6 4 2 1 359 357 356 356 356 356 356 356 356 355 354 353 351 349 350 350 349 351 354 356 0 0 357 359 358 356 359 4 6 6 10 13 6 358 357 1 3 4 7 3 344 297 201 185 172 162 144 121 147 153 148 146 141 144 160 175 180
121 121 118 114 110 105 98 83 64 49 39 32 28 24 21 24 24 22 20 16 15 13 10 8 6 4 2 0 358 358 358 357 358 358 359 359 359 359 358 356 354 353 353 353 352 352 354 356 1 2 359 358 357 355 358 4 7 9 13 13 5 356 350 352 0 6 10 6 348 328 240 193 181 178 157 99 129 152 145 139 137 127 123 135 164
122 123 119 116 112 108 100 84 66 51 40 34 27 23 27 29 26 24 22 19 18 15 10 7 6 2 0 359 358 359 358 359 0 1 1 1 1 1 1 358 356 356 356 356 355 353 355 357 0 3 0 357 357 356 357 3 9 12 13 10 359 352 352 354 358 3 5 356 338 333 297 226 213 196 198 81 110 142 153 142 143 136 126 118 111
126 127 123 118 113 108 96 82 69 56 43 35 29 28 31 33 30 26 23 21 19 15 9 6 4 0 359 358 357 359 359 0 3 3 2 2 3 3 4 1 359 358 357 358 357 354 356 358 359 2 1 358 358 357 357 2 9 14 14 10 1 353 354 356 358 1 1 351 328 331 351 226 220 209 202 122 94 98 170 155 151 154 149 133 114
130 127 123 119 113 106 93 79 68 55 43 35 35 35 36 37 33 27 25 23 18 13 8 4 1 358 358 358 358 0 2 3 4 5 4 4 4 4 5 4 3 2 0 1 1 359 359 0 1 3 4 0 359 359 357 0 9 16 15 12 8 360 352 351 354 359 3 1 351 344 348 305 198 201 195 137 101 61 33 142 165 174 168 148 130
129 124 121 119 113 102 89 77 64 51 42 36 38 42 42 41 35 28 27 23 15 10 7 2 1 360 358 1 3 4 5 6 7 7 5 7 7 6 7 7 6 5 4 3 4 3 3 4 4 6 7 4 1 1 358 359 7 15 16 14 11 5 354 346 346 357 3 4 8 11 357 338 218 193 184 145 116 90 65 78 123 141 143 141 137
128 126 122 117 107 95 85 77 63 49 43 40 42 47 46 42 36 30 26 20 11 9 7 4 5 3 0 4 7 6 7 9 10 10 9 9 10 9 10 9 6 6 6 5 5 5 4 6 6 7 8 5 2 1 359 0 6 13 16 16 12 7 1 349 346 3 8 2 6 16 4 347 316 178 174 156 126 103 74 66 73 69 80 126 146
128 127 122 115 107 98 89 79 64 51 47 46 48 51 49 42 36 30 22 15 11 9 8 8 8 6 5 8 10 10 11 12 13 12 11 11 12 12 12 9 4 3 4 5 6 3 360 0 3 4 6 4 1 0 359 0 5 11 15 16 13 11 11 4 358 6 7 358 360 4 354 349 4 167 171 159 133 106 70 66 71 57 73 122 132
132 129 124 118 111 103 94 83 70 58 53 51 53 54 50 41 35 26 17 15 15 10 10 11 11 11 12 14 15 15 16 16 14 14 13 13 14 13 12 10 5 1 1 3 4 2 358 357 360 3 4 2 1 0 358 360 5 9 11 14 15 16 20 19 12 10 5 358 1 1 349 355 47 160 165 156 141 121 86 71 66 58 76 105 115
132 129 126 121 113 107 101 90 77 66 60 56 56 56 51 40 31 22 16 19 17 12 13 15 16 17 18 19 20 20 20 19 16 15 15 14 13 13 13 11 6 3 2 3 3 2 360 358 358 0 2 1 0 359 358 360 4 7 8 10 13 17 23 22 17 13 7 3 7 6 355 358 104 151 156 153 146 132 113 93 72 69 79 92 103
131 131 129 122 116 114 109 97 84 74 67 62 59 57 50 38 28 20 19 21 18 16 17 18 20 24 22 20 20 20 22 22 18 18 18 15 13 13 13 11 8 5 4 3 3 1 359 356 354 355 357 358 358 357 357 359 3 5 6 7 9 15 21 22 15 10 7 6 10 12 7 31 108 126 135 142 141 130 121 110 90 78 78 84 97
135 135 131 124 121 120 114 104 94 82 73 68 63 57 50 37 27 23 22 22 19 18 19 19 22 26 25 24 23 22 22 21 19 20 21 17 14 14 13 12 9 7 5 3 1 0 357 353 351 352 352 353 355 357 357 358 2 4 4 4 6 11 18 20 16 13 14 14 19 30 39 60 89 104 118 137 142 132 119 109 101 78 56 67 93
140 137 134 131 130 127 120 111 101 89 80 75 67 59 51 39 31 27 25 24 22 19 19 20 20 22 25 28 28 25 24 23 21 22 23 21 17 15 15 15 13 9 6 3 1 1 359 353 351 351 351 352 355 358 359 358 360 2 1 1 4 8 12 12 12 15 21 24 29 41 52 56 62 77 108 128 127 123 114 108 106 73 49 57 72
141 140 139 138 136 131 124 114 104 95 86 81 74 62 51 42 35 30 27 26 23 17 16 17 18 18 19 22 25 26 27 27 26 24 24 24 22 19 20 22 21 17 13 9 5 3 0 356 354 352 352 353 357 359 360 359 359 3 4 3 3 7 11 13 14 21 28 30 30 34 41 46 44 41 52 86 98 97 89 86 87 75 73 75 82
143 144 143 140 136 131 125 115 106 100 93 88 81 66 52 45 38 33 29 25 17 12 15 16 17 17 13 11 16 23 27 29 29 28 27 27 26 26 27 28 24 19 18 18 16 11 5 1 1 0 360 360 358 356 358 2 7 11 13 11 9 11 18 23 29 35 38 36 33 31 31 33 33 29 28 31 36 41 52 66 70 66 80 98 108
145 145 143 140 138 133 126 117 108 104 101 95 85 70 56 48 41 35 31 23 15 15 19 19 19 17 12 8 11 16 19 23 27 28 28 28 27 25 23 22 19 15 14 18 20 20 20 19 15 11 7 3 0 0 5 13 18 19 21 21 18 19 28 35 40 45 43 37 35 33 29 27 26 26 21 13 9 7 11 43 66 67 55 69 80
148 148 146 144 141 136 127 118 112 111 107 99 89 75 60 52 45 39 34 27 21 22 24 22 22 18 10 7 9 11 12 16 21 21 22 23 25 23 17 14 14 14 14 16 16 17 23 29 29 23 16 8 8 13 17 20 22 23 26 25 20 23 33 40 43 48 47 37 31 31 29 24 23 23 18 8 2 359 358 9 28 40 60 73 63